This is the latest recevied weather packets stored in our database for station/object KM4LTG. If no packets are shown the sender has not sent any weather packets the latest 10 day(s).
| Time | Temp. | Humidity | Pressure | Rain* | Wind** | Luminosity | Snow |
|---|---|---|---|---|---|---|---|
| 1777955630 | 22.78° C | 71% | 1017 hPa | 0 mm | - | - | - |
| 1777955380 | 22.78° C | 71% | 1016.9 hPa | 0 mm | - | - | - |
| 1777955081 | 22.78° C | 71% | 1016.9 hPa | 0 mm | - | - | - |
| 1777954813 | 23.33° C | 70% | 1016.8 hPa | 0 mm | - | - | - |
| 1777954567 | 23.33° C | 70% | 1016.8 hPa | 0 mm | - | - | - |
| 1777954325 | 23.33° C | 70% | 1016.8 hPa | 0 mm | - | - | - |
| 1777954060 | 23.33° C | 70% | 1016.9 hPa | 0 mm | - | - | - |
| 1777953802 | 23.33° C | 70% | 1016.9 hPa | 0 mm | - | - | - |
| 1777953505 | 23.33° C | 70% | 1016.8 hPa | 0 mm | - | - | - |
| 1777943640 | 24.44° C | 60% | 1015.8 hPa | 0 mm | - | - | - |
| 1777943390 | 24.44° C | 60% | 1015.9 hPa | 0 mm | - | - | - |
| 1777943090 | 24.44° C | 60% | 1016 hPa | 0 mm | - | - | - |
| 1777942840 | 24.44° C | 60% | 1016 hPa | 0 mm | - | - | - |
| 1777941475 | 24.44° C | 59% | 1015.4 hPa | 0 mm | - | - | - |
| 1777941225 | 25° C | 58% | 1015.5 hPa | 0 mm | - | - | - |
| 1777940980 | 25° C | 58% | 1015.5 hPa | 0 mm | - | - | - |
| 1777940460 | 25° C | 57% | 1015.3 hPa | 0 mm | - | - | - |
| 1777939660 | 25° C | 56% | 1015.2 hPa | 0 mm | - | - | - |
| 1777937765 | 25.56° C | 55% | 1014.6 hPa | 0 mm | - | - | - |
| 1777936640 | 26.67° C | 54% | 1014.4 hPa | 0 mm | - | - | - |
| 1777935250 | 27.78° C | 51% | 1014.4 hPa | 0 mm | - | - | - |
| 1777934190 | 27.78° C | 51% | 1014.5 hPa | 0 mm | - | - | - |
| 1777933930 | 28.33° C | 50% | 1014.3 hPa | 0 mm | - | - | - |
| 1777933680 | 29.44° C | 48% | 1014.5 hPa | 0 mm | - | - | - |
| 1777933190 | 28.33° C | 48% | 1014.5 hPa | 0 mm | - | - | - |
* Rain latest hour (hover to see other rain measurements)
** Current wind speed in m/s (hover to see current wind gust speed)